TimeCST,TemperatureF,Dew PointF,Humidity,Sea Level PressureIn,VisibilityMPH,Wind Direction,Wind SpeedMPH,Gust SpeedMPH,PrecipitationIn,Events,Conditions,WindDirDegrees,DateUTC
12:15 AM,33.8,24.8,70,30.04,10.0,SE,9.2,-,N/A,,Overcast,130,2012-12-09 06:15:00
12:35 AM,33.8,24.8,70,30.03,10.0,ESE,10.4,-,N/A,,Overcast,110,2012-12-09 06:35:00
12:55 AM,33.8,24.8,70,30.02,10.0,ESE,11.5,-,N/A,,Mostly Cloudy,110,2012-12-09 06:55:00
1:15 AM,33.8,24.8,70,30.02,10.0,East,8.1,-,N/A,,Mostly Cloudy,100,2012-12-09 07:15:00
1:35 AM,33.8,24.8,70,30.00,10.0,ESE,8.1,-,N/A,Snow,Snow,110,2012-12-09 07:35:00
1:55 AM,33.8,24.8,70,30.02,10.0,East,6.9,-,N/A,Snow,Light Snow,100,2012-12-09 07:55:00
2:15 AM,33.8,24.8,70,30.02,10.0,East,6.9,-,N/A,,Overcast,90,2012-12-09 08:15:00
2:35 AM,33.8,26.6,75,30.02,3.0,ESE,8.1,-,N/A,Snow,Light Snow,110,2012-12-09 08:35:00
2:55 AM,32.0,28.4,87,30.00,1.8,ESE,10.4,17.3,N/A,Snow,Light Snow,110,2012-12-09 08:55:00
3:15 AM,32.0,28.4,87,30.00,1.2,ESE,6.9,-,N/A,Snow,Light Snow,110,2012-12-09 09:15:00
3:35 AM,30.2,28.4,93,29.99,1.8,ESE,6.9,-,N/A,Snow,Light Snow,110,2012-12-09 09:35:00
3:55 AM,30.2,28.4,93,29.98,1.8,ESE,9.2,-,N/A,Snow,Light Snow,110,2012-12-09 09:55:00
4:15 AM,30.2,28.4,93,29.99,1.5,East,6.9,-,N/A,Snow,Light Snow,100,2012-12-09 10:15:00
4:35 AM,30.2,28.4,93,30.00,1.5,ESE,6.9,-,N/A,Snow,Light Snow,110,2012-12-09 10:35:00
4:55 AM,30.2,28.4,93,29.99,1.8,East,6.9,-,N/A,Snow,Light Snow,100,2012-12-09 10:55:00
5:15 AM,30.2,28.4,93,29.99,1.2,ESE,8.1,-,0.01,Snow,Light Snow,110,2012-12-09 11:15:00
5:35 AM,30.2,28.4,93,29.98,1.0,East,6.9,-,0.01,Snow,Light Snow,90,2012-12-09 11:35:00
5:55 AM,30.2,28.4,93,29.97,1.0,East,8.1,-,0.01,Snow,Snow,100,2012-12-09 11:55:00
6:15 AM,30.2,28.4,93,29.96,2.0,East,8.1,-,0.01,Snow,Light Snow,90,2012-12-09 12:15:00
6:35 AM,30.2,28.4,93,29.96,2.5,ESE,8.1,-,0.01,Snow,Light Snow,110,2012-12-09 12:35:00
6:55 AM,32.0,28.4,87,29.97,1.5,ESE,6.9,-,0.01,Snow,Light Snow,110,2012-12-09 12:55:00
7:15 AM,32.0,30.2,93,29.96,2.5,ESE,10.4,-,N/A,Snow,Light Snow,110,2012-12-09 13:15:00
7:35 AM,32.0,30.2,93,29.96,2.5,ESE,10.4,-,N/A,Snow,Light Snow,110,2012-12-09 13:35:00
7:55 AM,32.0,30.2,93,29.95,1.2,ESE,10.4,-,N/A,Snow,Light Snow,110,2012-12-09 13:55:00
8:15 AM,32.0,30.2,93,29.95,0.8,ESE,10.4,-,N/A,Snow,Light Snow,110,2012-12-09 14:15:00
8:35 AM,32.0,30.2,93,29.96,0.8,ESE,10.4,-,N/A,Snow,Light Snow,110,2012-12-09 14:35:00
8:55 AM,32.0,30.2,93,29.96,0.5,ESE,8.1,-,0.01,Snow,Snow,110,2012-12-09 14:55:00
9:15 AM,32.0,30.2,93,29.94,0.2,ESE,10.4,-,N/A,Snow,Snow,110,2012-12-09 15:15:00
9:35 AM,32.0,30.2,93,29.94,0.5,ESE,10.4,-,N/A,Snow,Snow,110,2012-12-09 15:35:00
9:55 AM,32.0,30.2,93,29.95,0.5,ESE,10.4,18.4,0.01,Snow,Snow,110,2012-12-09 15:55:00
10:15 AM,32.0,30.2,93,29.93,0.5,ESE,11.5,-,N/A,Snow,Light Snow,110,2012-12-09 16:15:00
10:35 AM,32.0,30.2,93,29.92,0.8,ESE,11.5,-,N/A,Snow,Light Snow,110,2012-12-09 16:35:00
10:55 AM,32.0,30.2,93,29.92,0.8,ESE,8.1,-,N/A,Snow,Light Snow,120,2012-12-09 16:55:00
11:15 AM,32.0,30.2,93,29.90,0.8,East,10.4,16.1,0.01,Snow,Light Snow,100,2012-12-09 17:15:00
11:35 AM,32.0,30.2,93,29.89,0.5,East,9.2,-,0.01,Snow,Light Snow,100,2012-12-09 17:35:00
12:15 PM,32.0,30.2,93,29.88,0.2,East,6.9,-,0.01,Snow,Snow,100,2012-12-09 18:15:00
12:35 PM,32.0,30.2,93,29.86,0.2,East,8.1,-,0.02,Snow,Heavy Snow,90,2012-12-09 18:35:00
12:55 PM,32.0,30.2,93,29.85,0.2,East,8.1,-,0.03,Snow,Snow,90,2012-12-09 18:55:00
1:15 PM,32.0,30.2,93,29.84,0.2,East,8.1,-,0.01,Snow,Snow,100,2012-12-09 19:15:00
1:35 PM,30.2,30.2,100,29.83,0.2,East,9.2,-,0.02,Snow,Snow,100,2012-12-09 19:35:00
1:55 PM,30.2,28.4,93,29.82,0.2,East,9.2,-,0.02,Snow,Snow,90,2012-12-09 19:55:00
2:15 PM,30.2,28.4,93,29.83,0.2,East,8.1,-,0.01,Snow,Snow,90,2012-12-09 20:15:00
2:35 PM,30.2,28.4,93,29.82,0.2,East,9.2,-,0.02,Snow,Heavy Snow,90,2012-12-09 20:35:00
2:55 PM,30.2,28.4,93,29.82,0.2,East,9.2,-,0.02,Snow,Heavy Snow,90,2012-12-09 20:55:00
3:15 PM,30.2,28.4,93,29.82,0.2,East,9.2,-,0.01,Snow,Heavy Snow,90,2012-12-09 21:15:00
3:35 PM,30.2,28.4,93,29.82,0.2,East,8.1,-,0.01,Snow,Snow,90,2012-12-09 21:35:00
3:55 PM,30.2,28.4,93,29.83,0.2,East,6.9,-,0.01,Snow,Snow,90,2012-12-09 21:55:00
4:15 PM,30.2,28.4,93,29.83,0.2,East,6.9,-,0.01,Snow,Snow,90,2012-12-09 22:15:00
4:35 PM,30.2,28.4,93,29.82,0.5,East,4.6,-,0.02,Snow,Snow,90,2012-12-09 22:35:00
4:55 PM,30.2,28.4,93,29.82,1.0,East,4.6,-,0.02,Snow,Snow,90,2012-12-09 22:55:00
5:15 PM,30.2,28.4,93,29.83,0.8,East,4.6,-,0.01,Snow,Snow,80,2012-12-09 23:15:00
5:35 PM,30.2,28.4,93,29.83,0.8,East,3.5,-,0.02,Snow,Snow,80,2012-12-09 23:35:00
5:55 PM,30.2,28.4,93,29.83,1.2,ENE,3.5,-,0.02,Snow,Light Snow,60,2012-12-09 23:55:00
6:15 PM,30.2,28.4,93,29.83,2.0,ENE,5.8,-,0.02,Snow,Light Snow,60,2012-12-10 00:15:00
6:35 PM,30.2,28.4,93,29.83,3.0,NE,4.6,-,0.03,Snow,Light Snow,50,2012-12-10 00:35:00
6:55 PM,30.2,28.4,93,29.82,7.0,NE,5.8,-,0.03,,Overcast,40,2012-12-10 00:55:00
7:15 PM,30.2,28.4,93,29.82,4.0,NNE,8.1,-,0.01,,Overcast,20,2012-12-10 01:15:00
7:35 PM,30.2,26.6,86,29.82,5.0,NNE,6.9,-,0.01,,Overcast,30,2012-12-10 01:35:00
7:55 PM,30.2,26.6,86,29.82,5.0,NNE,6.9,-,0.01,Snow,Light Snow,20,2012-12-10 01:55:00
8:15 PM,30.2,26.6,86,29.82,5.0,NNE,8.1,-,N/A,Snow,Light Snow,20,2012-12-10 02:15:00
8:35 PM,30.2,26.6,86,29.82,3.0,NNE,8.1,-,N/A,,Overcast,20,2012-12-10 02:35:00
8:55 PM,30.2,26.6,86,29.83,3.0,NNE,6.9,-,N/A,,Overcast,20,2012-12-10 02:55:00
9:15 PM,30.2,26.6,86,29.82,4.0,NNE,9.2,-,N/A,,Overcast,20,2012-12-10 03:15:00
9:35 PM,30.2,26.6,86,29.82,4.0,NNE,8.1,-,N/A,Snow,Light Snow,20,2012-12-10 03:35:00
9:55 PM,30.2,26.6,86,29.82,4.0,NNE,9.2,-,N/A,Snow,Light Snow,20,2012-12-10 03:55:00
10:15 PM,30.2,26.6,86,29.83,4.0,NNE,9.2,-,N/A,Snow,Light Snow,20,2012-12-10 04:15:00
10:35 PM,30.2,26.6,86,29.82,3.0,NNE,8.1,-,N/A,Snow,Light Snow,20,2012-12-10 04:35:00
10:55 PM,28.4,26.6,93,29.83,3.0,North,9.2,-,N/A,Snow,Light Snow,10,2012-12-10 04:55:00
11:15 PM,28.4,26.6,93,29.83,4.0,North,8.1,-,N/A,Snow,Light Snow,10,2012-12-10 05:15:00
11:35 PM,28.4,26.6,93,29.84,3.0,North,8.1,-,N/A,Snow,Light Snow,360,2012-12-10 05:35:00
11:55 PM,28.4,26.6,93,29.84,2.5,North,9.2,-,N/A,Snow,Light Snow,360,2012-12-10 05:55:00